Regional Weather Roundup
Issued by NWS Little Rock, AR

Home | Current Version | Previous Version | Graphics & Text | Print | Product List | Glossary On
Versions: 1 2 3 4 5 6 7 8 9 10 11 12 13 14 15 16 17 18 19 20 21 22 23 24 25 26 27 28 29 30 31 32 33 34 35 36 37 38 39 40 41 42 43 44 45 46 47 48 49 50
000
ASUS44 KLZK 262005
RWRLZK

WEATHER ROUNDUP FOR ARKANSAS
NATIONAL WEATHER SERVICE LITTLE ROCK AR
300 PM CDT THU MAY 26 2016

NOTE: "FAIR" INDICATES FEW OR NO CLOUDS BELOW 12,000 FEET WITH NO
SIGNIFICANT WEATHER AND/OR OBSTRUCTIONS TO VISIBILITY.

ARZ001-003-010-029-262100-
NORTHWEST ARKANSAS

CITY           SKY/WX    TMP DP  RH WIND       PRES   REMARKS
FAYETTEVILLE   FAIR      80  72  76 S12       29.89F
FORT SMITH     CLOUDY    79  72  79 SE8       29.89F
HARRISON       FAIR      83  71  67 S14       29.92F HX  87
BENTONVILLE    FAIR      84  70  61 S13       29.90F HX  88
ROGERS           N/A     84  71  65 S16       29.89F HX  89
SILOAM SPGS    PTSUNNY   81  68  65 S12G17    29.89F
HIGHFILL       PTSUNNY   83  73  72 S12       29.89F HX  89
SPRINGDALE     PTSUNNY   82  72  69 S14       29.92F HX  87
$$

ARZ004-005-016-262100-
NORTH CENTRAL ARKANSAS

CITY           SKY/WX    TMP DP  RH WIND       PRES   REMARKS
BATESVILLE     CLOUDY    82  72  69 SE7       29.95F HX  87
FLIPPIN        FAIR     N/A N/A N/A S8        29.88F
MTN HOME       FAIR      85  71  63 S14G20    29.91F HX  90
$$

ARZ040-041-262100-
WEST CENTRAL ARKANSAS

CITY           SKY/WX    TMP DP  RH WIND       PRES   REMARKS
MENA           PTSUNNY   77  73  88 S10G20    29.96R
MOUNT IDA      LGT RAIN  77  72  84 SE6       29.95R
$$

ARZ009-017-025-026-028-262100-
NORTHEAST ARKANSAS

CITY           SKY/WX    TMP DP  RH WIND       PRES   REMARKS
CORNING        LGT RAIN  84  75  74 SW16      29.96F HX  92
JONESBORO      FAIR      85  71  63 SW17      29.96S HX  90
NEWPORT        PTSUNNY   85  74  69 S12       29.96F HX  92
WALNUT RIDGE   FAIR      82  72  69 S15       29.96R HX  87
BLYTHEVILLE    PTSUNNY   86  71  60 S12       29.99R HX  91
NW BLYTHEVILLE PTSUNNY   88  73  62 S13G25    29.98R HX  96
$$

ARZ022-023-033-042-044-262100-
CENTRAL ARKANSAS

CITY           SKY/WX    TMP DP  RH WIND       PRES   REMARKS
LITTLE ROCK    CLOUDY    84  73  69 S12       29.96S HX  90
N LITTLE ROCK    N/A     83  74  73 SW6       29.93F HX  89
SEARCY         FAIR      84  75  74 S8        29.95F THUNDER HX  92
HOT SPRINGS    CLOUDY    79  71  76 S8        29.98R
RUSSELLVILLE   CLOUDY    82  71  69 S5        29.93F HX  86
CLINTON        PTSUNNY   82  73  74 S5        29.94F HX  88
$$

ARZ036-262100-
EAST ARKANSAS

CITY           SKY/WX    TMP DP  RH WIND       PRES   REMARKS
WEST MEMPHIS   FAIR      88  73  61 S12       29.96F HX  95
$$

ARZ050-053-066-070-073-262100-
SOUTHWEST ARKANSAS

CITY           SKY/WX    TMP DP  RH WIND       PRES   REMARKS
ARKADELPHIA    FAIR      80  73  79 SW5       29.98R
CAMDEN         PTSUNNY   82  72  69 SW3       29.98R HX  87
TEXARKANA      TSTM      70  68  93 NE5       30.00S FOG
EL DORADO      CLOUDY    82  72  71 S6        29.99S HX  87
DE QUEEN       LGT RAIN  71  68  90 SE9       29.96R FOG
$$

ARZ056-057-069-262100-
SOUTHEAST ARKANSAS

CITY           SKY/WX    TMP DP  RH WIND       PRES   REMARKS
PINE BLUFF     PTSUNNY   85  72  65 S13       29.97F HX  91
STUTTGART      PTSUNNY   90  72  55 S17       29.95F HX  96
MONTICELLO     PTSUNNY   89  71  55 S9        29.98S HX  95

$$





USA.gov is the U.S. government's official web portal to all federal, state and local government web resources and services.